Regional Weather Roundup
Issued by NWS

Home | Current Version | Previous Version | Graphics & Text | Print | Product List | Glossary On
Versions: 1 2 3 4 5 6 7 8 9 10 11 12 13 14 15 16 17 18 19 20 21 22 23 24 25 26 27 28 29 30 31 32 33 34 35 36 37 38 39 40 41 42 43 44 45 46 47 48 49 50
254
ASUS43 KOAX 200210
RWRNE

WEATHER ROUNDUP FOR NEBRASKA
NATIONAL WEATHER SERVICE OMAHA NE
800 PM CST MON FEB 19 2018

NOTES: SATELLITE DATA IS BEING USED TO AUGMENT CLOUD COVER ABOVE
       12000 FEET.
       "FAIR" INDICATES FEW OR NO CLOUDS BELOW 12,000 FEET WITH NO
       SIGNIFICANT WEATHER AND/OR OBSTRUCTIONS TO VISIBILITY.


NEZ001>004-019>022-054>056-200300-
NEBRASKA PANHANDLE

CITY           SKY/WX    TMP DP  RH WIND       PRES   REMARKS
SCOTTSBLUFF    SNOW       2  -2  83 N12       29.81R VSB 1/2 WCI -15
ALLIANCE       LGT SNOW   1  -2  87 N12       29.80F VSB 1   WCI -16
CHADRON        SNOW       1  -3  83 N13       29.91F VSB 1/2 WCI -17
GORDON         LGT SNOW   1  -5  78 N14       29.85F WCI -18
KIMBALL        FLURRIES   2  -2  81 NE9       29.68F WCI -12
SIDNEY         LGT SNOW   4  -1  80 N15       29.74F WCI -14
$$

NEZ057>060-069>072-079>082-200300-
SOUTHWEST NEBRASKA

CITY           SKY/WX    TMP DP  RH WIND       PRES   REMARKS
NORTH PLATTE   LGT SNOW   9   4  80 N13       29.85R WCI  -7
IMPERIAL       FLURRIES  10   7  87 NE16      29.80R WCI  -7
LEXINGTON      LGT SNOW  13  10  84 N13       29.85S WCI  -1
MCCOOK         FLURRIES  14  10  84 N13       29.82F WCI   0
OGALLALA       LGT SNOW  10   5  82 N15       29.82S WCI  -7
$$

NEZ005>010-023>029-035>040-094-200300-
NORTH CENTRAL NEBRASKA

CITY           SKY/WX    TMP DP  RH WIND       PRES   REMARKS
VALENTINE      LGT SNOW   6   1  80 N14       29.93R WCI -11
AINSWORTH      LGT SNOW   8   6  91 N16       29.90R WCI -10
BROKEN BOW     FLURRIES  10   6  84 N13       29.85R WCI  -5
O`NEILL        FLURRIES  11   8  90 N13       29.88S WCI  -4
ORD            LGT SNOW  12   8  84 N14       29.88R FOG     WCI  -3
THEDFORD       CLOUDY     7   4  86 N13G18    29.89R WCI  -9
$$

NEZ041-046>049-061>064-073>077-083>087-200300-
SOUTH CENTRAL NEBRASKA

CITY           SKY/WX    TMP DP  RH WIND       PRES   REMARKS
GRAND ISLAND   FLURRIES  16  12  84 N10       29.87R WCI   4
AURORA         FLURRIES  16  13  86 N10       29.86S WCI   4
HASTINGS       FLURRIES  15  11  83 N9        29.86S WCI   3
HEBRON         CLOUDY    20  17  85 N10       29.86F WCI   9
HOLDREGE       FLURRIES  14  12  91 N12       29.84F WCI   0
KEARNEY        FLURRIES  13  10  88 N10       29.87S WCI   0
YORK           CLOUDY    18  18 100 N12       29.86F WCI   5
$$

NEZ011>018-030>034-042>045-200300-
NORTHEAST NEBRASKA

CITY           SKY/WX    TMP DP  RH WIND       PRES   REMARKS
NORFOLK        FLURRIES  17  14  88 NE13      29.86S WCI   4
ALBION         LGT SNOW  15  11  87 N9        29.87F WCI   3
BLAIR          CLOUDY    22  20  94 N7        29.85S WCI  13
COLUMBUS       MIX PCPN  18  15  88 N8        29.90R WCI   8
FREMONT        CLOUDY    21  19  93 N8        29.87F WCI  11
TEKAMAH        CLOUDY    21  19  92 N13       29.89S WCI   9
WAYNE          CLOUDY    18  17  96 N9        29.89R WCI   6
$$

NEZ050>053-065>068-078-088>093-200300-
SOUTHEAST NEBRASKA

CITY           SKY/WX    TMP DP  RH WIND       PRES   REMARKS
LINCOLN        FLURRIES  20  17  88 N9        29.89F WCI   9
OMAHA EPPLEY   CLOUDY    22  20  92 N12       29.88F WCI  10
BEATRICE       CLOUDY    23  21  93 N10       29.85F WCI  12
FALLS CITY     CLOUDY    25  23  92 NW9       29.85S WCI  15
NEBRASKA CITY  CLOUDY    24  24 100 N8        29.86S WCI  14
PLATTSMOUTH    CLOUDY    23  22  96 NW8       29.86F WCI  14
$$

NEZ044-045-051>053-067-200300-
OMAHA AREA

CITY           SKY/WX    TMP DP  RH WIND       PRES   REMARKS
OMAHA EPPLEY   CLOUDY    22  20  92 N12       29.88F WCI  10
BLAIR          CLOUDY    22  20  94 N7        29.85S WCI  13
FREMONT        CLOUDY    21  19  93 N8        29.87F WCI  11
MILLARD        CLOUDY    24  20  87 N5        29.88F WCI  18
OFFUTT AFB     CLOUDY    22  20  90 N8        29.86R WCI  13
PLATTSMOUTH    CLOUDY    23  22  96 NW8       29.86F WCI  14
WAHOO          CLOUDY    22  19  89 N9        29.89S WCI  11
$$




USA.gov is the U.S. government's official web portal to all federal, state and local government web resources and services.